| time (UTC) | temp C | wind direction | speed KPH | gust KPH | rain 1hr cm | rain 24hr cm | rain mn cm | humidity % | barometer mb |
| 20260504140128 | 16 | 177 | 0.0 | 3.2 | 0.00 | 0.00 | 0.00 | 58 | 1019.0 |
| 20260504130556 | 12 | 273 | 0.0 | 3.2 | 0.00 | 0.00 | 0.00 | 73 | 1019.1 |
| 20260504110444 | 5 | 299 | 0.0 | 0.0 | 0.00 | 0.00 | 0.00 | 96 | 1018.9 |
| 20260504100407 | 5 | 299 | 0.0 | 0.0 | 0.00 | 0.00 | 0.00 | 95 | 1018.6 |
| 20260504081800 | 6 | 299 | 0.0 | 0.0 | 0.00 | 0.00 | 0.00 | 94 | 1018.2 |
| 20260504081256 | 6 | 299 | 0.0 | 0.0 | 0.00 | 0.00 | 0.00 | 94 | 1018.1 |
| 20260504080753 | 6 | 299 | 0.0 | 0.0 | 0.00 | 0.00 | 0.00 | 94 | 1018.2 |
| 20260504080249 | 6 | 299 | 0.0 | 0.0 | 0.00 | 0.00 | 0.00 | 94 | 1018.1 |
| 20260504070217 | 6 | 299 | 0.0 | 0.0 | 0.00 | 0.00 | 0.00 | 92 | 1018.4 |
| 20260504060137 | 7 | 299 | 0.0 | 0.0 | 0.00 | 0.00 | 0.00 | 90 | 1019.3 |
| 20260504050605 | 8 | 299 | 0.0 | 0.0 | 0.00 | 0.00 | 0.00 | 87 | 1018.8 |
| 20260504045559 | 8 | 299 | 0.0 | 0.0 | 0.00 | 0.00 | 0.00 | 87 | 1018.8 |
| 20260504045054 | 8 | 299 | 0.0 | 0.0 | 0.00 | 0.00 | 0.00 | 87 | 1018.9 |
| 20260504044552 | 8 | 299 | 0.0 | 0.0 | 0.00 | 0.00 | 0.00 | 88 | 1018.9 |
| 20260504044049 | 8 | 299 | 0.0 | 0.0 | 0.00 | 0.00 | 0.00 | 88 | 1019.0 |
| 20260504043546 | 8 | 299 | 0.0 | 0.0 | 0.00 | 0.00 | 0.00 | 88 | 1019.0 |
| 20260504043043 | 8 | 299 | 0.0 | 0.0 | 0.00 | 0.00 | 0.00 | 87 | 1019.1 |
| 20260504042540 | 8 | 299 | 0.0 | 0.0 | 0.00 | 0.00 | 0.00 | 87 | 1018.9 |
| 20260504042037 | 8 | 299 | 0.0 | 0.0 | 0.00 | 0.00 | 0.00 | 86 | 1019.1 |
| 20260504041533 | 8 | 299 | 0.0 | 0.0 | 0.00 | 0.00 | 0.00 | 86 | 1019.3 |
| 20260504041029 | 8 | 299 | 0.0 | 0.0 | 0.00 | 0.00 | 0.00 | 86 | 1019.2 |
| 20260504040527 | 8 | 299 | 0.0 | 0.0 | 0.00 | 0.00 | 0.00 | 86 | 1019.3 |
| 20260504040024 | 8 | 299 | 0.0 | 0.0 | 0.00 | 0.00 | 0.00 | 86 | 1019.3 |
| 20260504035521 | 8 | 299 | 0.0 | 0.0 | 0.00 | 0.00 | 0.00 | 86 | 1019.0 |
| 20260504035017 | 8 | 299 | 0.0 | 0.0 | 0.00 | 0.00 | 0.00 | 86 | 1019.1 |
| 20260504034514 | 8 | 299 | 0.0 | 0.0 | 0.00 | 0.00 | 0.00 | 85 | 1019.3 |
| 20260504034011 | 8 | 299 | 0.0 | 0.0 | 0.00 | 0.00 | 0.00 | 85 | 1019.2 |
| 20260504033509 | 8 | 299 | 0.0 | 0.0 | 0.00 | 0.00 | 0.00 | 84 | 1019.1 |
| 20260504033006 | 9 | 299 | 0.0 | 0.0 | 0.00 | 0.00 | 0.00 | 85 | 1019.0 |
| 20260504032503 | 9 | 299 | 0.0 | 0.0 | 0.00 | 0.00 | 0.00 | 85 | 1019.0 |
| 20260504031959 | 9 | 299 | 0.0 | 0.0 | 0.00 | 0.00 | 0.00 | 85 | 1019.3 |
| 20260504031456 | 10 | 299 | 0.0 | 0.0 | 0.00 | 0.00 | 0.00 | 84 | 1019.1 |
| 20260504030953 | 10 | 299 | 0.0 | 0.0 | 0.00 | 0.00 | 0.00 | 83 | 1019.0 |
| 20260504030450 | 10 | 299 | 0.0 | 0.0 | 0.00 | 0.00 | 0.00 | 80 | 1019.2 |
| 20260504025946 | 10 | 299 | 0.0 | 0.0 | 0.00 | 0.00 | 0.00 | 80 | 1019.2 |
| 20260504025443 | 10 | 299 | 0.0 | 0.0 | 0.00 | 0.00 | 0.00 | 81 | 1019.0 |
| 20260504024940 | 10 | 299 | 0.0 | 0.0 | 0.00 | 0.00 | 0.00 | 82 | 1019.1 |
| 20260504024437 | 10 | 299 | 0.0 | 0.0 | 0.00 | 0.00 | 0.00 | 82 | 1019.1 |
| 20260504023934 | 10 | 299 | 0.0 | 0.0 | 0.00 | 0.00 | 0.00 | 82 | 1019.1 |
| 20260504023431 | 10 | 299 | 0.0 | 0.0 | 0.00 | 0.00 | 0.00 | 80 | 1019.0 |
| 20260504022926 | 10 | 299 | 0.0 | 0.0 | 0.00 | 0.00 | 0.00 | 79 | 1018.9 |
| 20260504022423 | 10 | 297 | 0.0 | 0.0 | 0.00 | 0.00 | 0.00 | 79 | 1018.9 |
| 20260504021920 | 10 | 297 | 0.0 | 0.0 | 0.00 | 0.00 | 0.00 | 79 | 1018.9 |
| 20260504021417 | 10 | 296 | 0.0 | 0.0 | 0.00 | 0.00 | 0.00 | 78 | 1018.7 |
| 20260504020914 | 11 | 296 | 0.0 | 0.0 | 0.00 | 0.00 | 0.00 | 77 | 1019.0 |
| 20260504020410 | 11 | 296 | 0.0 | 0.0 | 0.00 | 0.00 | 0.00 | 76 | 1018.8 |
| 20260504015907 | 11 | 296 | 0.0 | 0.0 | 0.00 | 0.00 | 0.00 | 74 | 1018.9 |
| 20260504015403 | 11 | 296 | 0.0 | 0.0 | 0.00 | 0.00 | 0.00 | 74 | 1018.7 |
| 20260504014859 | 11 | 296 | 0.0 | 0.0 | 0.00 | 0.00 | 0.00 | 73 | 1018.7 |
| 20260504014355 | 11 | 295 | 0.0 | 0.0 | 0.00 | 0.00 | 0.00 | 72 | 1018.6 |
| 20260504013853 | 12 | 295 | 0.0 | 0.0 | 0.00 | 0.00 | 0.00 | 72 | 1018.6 |
| 20260504013351 | 12 | 295 | 0.0 | 0.0 | 0.00 | 0.00 | 0.00 | 71 | 1018.5 |
| 20260504012847 | 12 | 295 | 0.0 | 0.0 | 0.00 | 0.00 | 0.00 | 71 | 1018.4 |
| 20260504012345 | 12 | 295 | 0.0 | 0.0 | 0.00 | 0.00 | 0.00 | 71 | 1018.4 |
| 20260504011842 | 12 | 295 | 0.0 | 0.0 | 0.00 | 0.00 | 0.00 | 68 | 1018.4 |
| 20260504011338 | 13 | 294 | 0.0 | 0.0 | 0.00 | 0.00 | 0.00 | 68 | 1018.3 |
| 20260504010835 | 13 | 295 | 0.0 | 0.0 | 0.00 | 0.00 | 0.00 | 69 | 1018.4 |
| 20260504010330 | 13 | 294 | 0.0 | 0.0 | 0.00 | 0.00 | 0.00 | 68 | 1018.4 |
| 20260504005827 | 13 | 294 | 0.0 | 0.0 | 0.00 | 0.00 | 0.00 | 65 | 1018.4 |
| 20260504005324 | 14 | 294 | 0.0 | 0.0 | 0.00 | 0.00 | 0.00 | 62 | 1018.3 |
| 20260504004822 | 14 | 294 | 0.0 | 0.0 | 0.00 | 0.00 | 0.00 | 60 | 1018.4 |
| 20260504004319 | 15 | 294 | 0.0 | 0.0 | 0.00 | 0.00 | 0.00 | 61 | 1018.1 |
| 20260504003815 | 15 | 294 | 0.0 | 0.0 | 0.00 | 0.00 | 0.00 | 57 | 1018.2 |
| 20260504003312 | 15 | 296 | 0.0 | 0.0 | 0.00 | 0.00 | 0.00 | 59 | 1018.1 |
| 20260504002809 | 15 | 296 | 0.0 | 0.0 | 0.00 | 0.00 | 0.00 | 66 | 1018.1 |
| 20260504002306 | 16 | 296 | 0.0 | 0.0 | 0.00 | 0.00 | 0.00 | 59 | 1018.1 |
| 20260504001804 | 16 | 294 | 0.0 | 0.0 | 0.00 | 0.00 | 0.00 | 59 | 1018.0 |
| 20260504001300 | 16 | 296 | 0.0 | 0.0 | 0.00 | 0.00 | 0.00 | 51 | 1017.9 |
| 20260504000757 | 16 | 290 | 0.0 | 0.0 | 0.00 | 0.00 | 0.00 | 55 | 1018.1 |
| 20260504000254 | 17 | 287 | 0.0 | 0.0 | 0.00 | 0.00 | 0.00 | 50 | 1018.0 |
| 20260503235752 | 17 | 276 | 0.0 | 0.0 | 0.00 | 0.00 | 0.00 | 50 | 1017.8 |
| 20260503235249 | 17 | 271 | 0.0 | 0.0 | 0.00 | 0.00 | 0.00 | 52 | 1017.9 |
| 20260503234747 | 17 | 269 | 0.0 | 0.0 | 0.00 | 0.00 | 0.00 | 48 | 1017.9 |
| 20260503234245 | 18 | 287 | 0.0 | 0.0 | 0.00 | 0.00 | 0.00 | 48 | 1017.7 |
| 20260503233741 | 18 | 282 | 0.0 | 0.0 | 0.00 | 0.00 | 0.00 | 47 | 1018.1 |
| 20260503233237 | 18 | 256 | 0.0 | 0.0 | 0.00 | 0.00 | 0.00 | 45 | 1017.9 |
| 20260503232734 | 18 | 318 | 0.0 | 0.0 | 0.00 | 0.00 | 0.00 | 44 | 1017.9 |
| 20260503232232 | 18 | 300 | 0.0 | 1.6 | 0.00 | 0.00 | 0.00 | 43 | 1017.9 |
| 20260503231730 | 19 | 287 | 0.0 | 0.0 | 0.00 | 0.00 | 0.00 | 43 | 1017.9 |
| 20260503231226 | 19 | 268 | 0.0 | 3.2 | 0.00 | 0.00 | 0.00 | 44 | 1017.8 |
| 20260503230722 | 20 | 278 | 0.0 | 0.0 | 0.00 | 0.00 | 0.00 | 42 | 1017.9 |
| 20260503230220 | 20 | 220 | 0.0 | 4.8 | 0.00 | 0.00 | 0.00 | 41 | 1017.9 |
| 20260503225717 | 21 | 270 | 0.0 | 1.6 | 0.00 | 0.00 | 0.00 | 36 | 1017.7 |
| 20260503225217 | 21 | 271 | 0.0 | 1.6 | 0.00 | 0.00 | 0.00 | 35 | 1017.8 |
| 20260503224715 | 21 | 244 | 1.6 | 1.6 | 0.00 | 0.00 | 0.00 | 35 | 1017.9 |
| 20260503224212 | 22 | 283 | 0.0 | 3.2 | 0.00 | 0.00 | 0.00 | 36 | 1018.0 |
| 20260503223710 | 22 | 257 | 0.0 | 1.6 | 0.00 | 0.00 | 0.00 | 37 | 1018.0 |
| 20260503223207 | 22 | 278 | 0.0 | 0.0 | 0.00 | 0.00 | 0.00 | 35 | 1018.1 |
| 20260503222703 | 23 | 271 | 1.6 | 1.6 | 0.00 | 0.00 | 0.00 | 34 | 1017.8 |
| 20260503222201 | 23 | 187 | 0.0 | 1.6 | 0.00 | 0.00 | 0.00 | 32 | 1018.1 |
| 20260503221659 | 23 | 261 | 0.0 | 1.6 | 0.00 | 0.00 | 0.00 | 34 | 1018.1 |
| 20260503221156 | 23 | 282 | 0.0 | 1.6 | 0.00 | 0.00 | 0.00 | 36 | 1018.2 |
| 20260503220653 | 22 | 291 | 0.0 | 3.2 | 0.00 | 0.00 | 0.00 | 37 | 1018.2 |
| 20260503220149 | 22 | 283 | 1.6 | 4.8 | 0.00 | 0.00 | 0.00 | 36 | 1018.3 |
| 20260503215647 | 22 | 251 | 1.6 | 1.6 | 0.00 | 0.00 | 0.00 | 37 | 1018.1 |
| 20260503215143 | 22 | 264 | 1.6 | 3.2 | 0.00 | 0.00 | 0.00 | 36 | 1018.2 |
| 20260503214642 | 22 | 223 | 1.6 | 3.2 | 0.00 | 0.00 | 0.00 | 37 | 1018.3 |
| 20260503214137 | 22 | 194 | 6.4 | 11.3 | 0.00 | 0.00 | 0.00 | 35 | 1018.3 |
| 20260503213632 | 22 | 307 | 1.6 | 1.6 | 0.00 | 0.00 | 0.00 | 34 | 1018.3 |
| 20260503213128 | 22 | 230 | 1.6 | 1.6 | 0.00 | 0.00 | 0.00 | 38 | 1018.3 |
| 20260503212625 | 22 | 162 | 4.8 | 9.7 | 0.00 | 0.00 | 0.00 | 36 | 1018.4 |
| 20260503212123 | 23 | 256 | 0.0 | 1.6 | 0.00 | 0.00 | 0.00 | 40 | 1018.4 |
| 20260503211620 | 22 | 217 | 0.0 | 3.2 | 0.00 | 0.00 | 0.00 | 38 | 1018.5 |
| 20260503211116 | 22 | 257 | 3.2 | 6.4 | 0.00 | 0.00 | 0.00 | 38 | 1018.5 |
| 20260503210612 | 23 | 278 | 6.4 | 12.9 | 0.00 | 0.00 | 0.00 | 36 | 1018.6 |
| 20260503210109 | 23 | 316 | 0.0 | 3.2 | 0.00 | 0.00 | 0.00 | 34 | 1018.7 |
| 20260503205605 | 23 | 258 | 1.6 | 3.2 | 0.00 | 0.00 | 0.00 | 34 | 1018.5 |
| 20260503205101 | 23 | 225 | 3.2 | 4.8 | 0.00 | 0.00 | 0.00 | 35 | 1018.8 |
| 20260503204558 | 22 | 274 | 0.0 | 1.6 | 0.00 | 0.00 | 0.00 | 35 | 1018.9 |
| 20260503204055 | 22 | 300 | 1.6 | 3.2 | 0.00 | 0.00 | 0.00 | 33 | 1019.0 |
| 20260503203552 | 23 | 34 | 3.2 | 3.2 | 0.00 | 0.00 | 0.00 | 32 | 1019.0 |
| 20260503203050 | 22 | 272 | 0.0 | 3.2 | 0.00 | 0.00 | 0.00 | 32 | 1019.1 |
| 20260503202547 | 23 | 204 | 3.2 | 4.8 | 0.00 | 0.00 | 0.00 | 33 | 1019.3 |
| 20260503202045 | 22 | 276 | 1.6 | 3.2 | 0.00 | 0.00 | 0.00 | 36 | 1019.3 |
| 20260503201543 | 22 | 210 | 6.4 | 11.3 | 0.00 | 0.00 | 0.00 | 33 | 1019.4 |
| 20260503201040 | 22 | 233 | 3.2 | 3.2 | 0.00 | 0.00 | 0.00 | 35 | 1019.3 |
| 20260503200531 | 22 | 278 | 0.0 | 4.8 | 0.00 | 0.00 | 0.00 | 37 | 1019.6 |
| 20260503200027 | 22 | 288 | 0.0 | 4.8 | 0.00 | 0.00 | 0.00 | 33 | 1019.6 |
| 20260503195525 | 22 | 270 | 4.8 | 9.7 | 0.00 | 0.00 | 0.00 | 36 | 1019.6 |
| 20260503195021 | 22 | 276 | 0.0 | 3.2 | 0.00 | 0.00 | 0.00 | 34 | 1019.9 |
| 20260503194518 | 22 | 296 | 0.0 | 1.6 | 0.00 | 0.00 | 0.00 | 35 | 1019.8 |
| 20260503194017 | 23 | 280 | 4.8 | 6.4 | 0.00 | 0.00 | 0.00 | 31 | 1019.9 |
| 20260503193514 | 22 | 244 | 1.6 | 3.2 | 0.00 | 0.00 | 0.00 | 37 | 1020.0 |
| 20260503193010 | 21 | 294 | 0.0 | 3.2 | 0.00 | 0.00 | 0.00 | 36 | 1020.1 |
| 20260503192506 | 21 | 265 | 1.6 | 3.2 | 0.00 | 0.00 | 0.00 | 31 | 1020.5 |
| 20260503192002 | 21 | 239 | 0.0 | 3.2 | 0.00 | 0.00 | 0.00 | 35 | 1020.3 |
| 20260503191459 | 21 | 283 | 0.0 | 3.2 | 0.00 | 0.00 | 0.00 | 39 | 1020.4 |
| 20260503190955 | 21 | 214 | 1.6 | 4.8 | 0.00 | 0.00 | 0.00 | 36 | 1020.4 |
| 20260503190453 | 21 | 338 | 0.0 | 4.8 | 0.00 | 0.00 | 0.00 | 35 | 1020.5 |
| 20260503185950 | 22 | 329 | 1.6 | 6.4 | 0.00 | 0.00 | 0.00 | 40 | 1020.4 |
| 20260503185446 | 21 | 283 | 1.6 | 3.2 | 0.00 | 0.00 | 0.00 | 39 | 1020.5 |
| 20260503184945 | 21 | 281 | 1.6 | 3.2 | 0.00 | 0.00 | 0.00 | 40 | 1020.5 |
| 20260503184442 | 21 | 261 | 4.8 | 11.3 | 0.00 | 0.00 | 0.00 | 39 | 1020.7 |
| 20260503183938 | 21 | 266 | 1.6 | 3.2 | 0.00 | 0.00 | 0.00 | 42 | 1020.8 |
| 20260503183435 | 20 | 280 | 1.6 | 11.3 | 0.00 | 0.00 | 0.00 | 42 | 1020.9 |
| 20260503182932 | 20 | 277 | 1.6 | 4.8 | 0.00 | 0.00 | 0.00 | 42 | 1021.0 |
| 20260503182431 | 20 | 218 | 1.6 | 3.2 | 0.00 | 0.00 | 0.00 | 39 | 1020.9 |
| 20260503181928 | 20 | 196 | 4.8 | 11.3 | 0.00 | 0.00 | 0.00 | 38 | 1021.0 |
| 20260503181425 | 21 | 13 | 0.0 | 3.2 | 0.00 | 0.00 | 0.00 | 41 | 1020.9 |
| 20260503180921 | 20 | 194 | 3.2 | 4.8 | 0.00 | 0.00 | 0.00 | 40 | 1021.1 |
| 20260503180420 | 20 | 216 | 6.4 | 12.9 | 0.00 | 0.00 | 0.00 | 37 | 1021.3 |
| 20260503175917 | 20 | 290 | 0.0 | 4.8 | 0.00 | 0.00 | 0.00 | 42 | 1021.3 |
| 20260503175415 | 20 | 358 | 3.2 | 4.8 | 0.00 | 0.00 | 0.00 | 41 | 1021.3 |
| 20260503174910 | 20 | 278 | 0.0 | 3.2 | 0.00 | 0.00 | 0.00 | 44 | 1021.5 |
| 20260503174409 | 20 | 144 | 3.2 | 3.2 | 0.00 | 0.00 | 0.00 | 41 | 1021.4 |
| 20260503173908 | 20 | 257 | 0.0 | 4.8 | 0.00 | 0.00 | 0.00 | 39 | 1021.5 |
| 20260503173405 | 20 | 262 | 1.6 | 3.2 | 0.00 | 0.00 | 0.00 | 41 | 1021.6 |
| 20260503172902 | 20 | 205 | 1.6 | 3.2 | 0.00 | 0.00 | 0.00 | 41 | 1021.6 |
| 20260503172359 | 20 | 259 | 1.6 | 3.2 | 0.00 | 0.00 | 0.00 | 38 | 1021.5 |
| 20260503171855 | 20 | 343 | 0.0 | 1.6 | 0.00 | 0.00 | 0.00 | 43 | 1021.7 |
| 20260503171352 | 19 | 259 | 3.2 | 4.8 | 0.00 | 0.00 | 0.00 | 42 | 1021.5 |
| 20260503170850 | 20 | 170 | 6.4 | 9.7 | 0.00 | 0.00 | 0.00 | 44 | 1021.7 |
| 20260503170346 | 20 | 190 | 3.2 | 4.8 | 0.00 | 0.00 | 0.00 | 45 | 1021.6 |
| 20260503150738 | 16 | 319 | 1.6 | 6.4 | 0.00 | 0.00 | 0.00 | 51 | 1022.9 |
| 20260503150234 | 16 | 213 | 1.6 | 3.2 | 0.00 | 0.00 | 0.00 | 53 | 1022.8 |